Terug naar catalogus

STARLINK-36202

ActiefCommunicatieVLEO
NORAD 67094·PAYLOAD·🇺🇸 United States

Gelanceerd Dec 14, 2025 vanaf Vandenberg Space Force Base

Loading…

Volgende Passages (komende 24 uur)

TLE

VersSource: CelesTrak SupGP

Epoch: Sep 14, 2026, 22:54 UTC

1 67094C 25298V   26257.95465278  .00035823  00000+0  30017-2 0  2570
2 67094  69.9997 257.1042 0003752 265.7263   5.9606 14.98315579    15

Volg STARLINK-36202 in realtime met AllMySat

Download on the App Store